Hourly Data Report for October 06, 2015

All times are specified in Local Standard Time (LST). Add 1 hour to adjust for Daylight Saving Time where and when it is observed.

RANKIN INLET A
NUNAVUT

62°48'38.000" N
92°06'53.000" W
32.30 m
2303405
71083
YRT

Download Data

Hourly Data (October 2015)
Hourly Data Report for October 6, 2015
Temp Definition
°C
Dew Point Temp Definition
°C
Rel Hum Definition
%
Wind Dir Definition
10's deg

Wind Spd Definition
km/h
Visibility Definition
km
Stn Press Definition
kPa
Hmdx Definition


Wind Chill Definition


Weather Definition


TIME
00:00 Legend Double Dagger 1.6 0.0 89 13 24 19.3 100.71     Rain Showers,Snow Showers
01:00 Legend Double Dagger 1.4 -0.4 88 13 24 16.1 100.66     LegendNANA
02:00 Legend Double Dagger 1.4 -0.2 89 12 24 19.3 100.63     Snow Showers
03:00 Legend Double Dagger 1.4 -0.1 90 11 22 12.9 100.59     Snow Showers
04:00 Legend Double Dagger 0.9 -0.3 92 12 21 12.9 100.58     Snow Showers
05:00 Legend Double Dagger 0.5 -0.4 94 8 16 6.4 100.59     Snow Showers
06:00 Legend Double Dagger 0.4 -0.2 96 7 16 4.8 100.59     Snow Showers
07:00 Legend Double Dagger 0.4 -0.3 95 6 18 4.8 100.60     Snow Showers
08:00 Legend Double Dagger 0.3 -0.6 94 6 18 4.8 100.61     Snow Showers
09:00 Legend Double Dagger 0.4 -0.6 93 6 14 4.8 100.63     Snow Showers
10:00 Legend Double Dagger 0.8 -0.4 92 6 17 6.4 100.65     Snow
11:00 Legend Double Dagger 0.8 -0.5 91 4 13 4.8 100.67     Snow
12:00 Legend Double Dagger 0.8 -0.7 90 3 10 9.7 100.67     Snow
13:00 Legend Double Dagger 1.5 -0.9 84 1 13 16.1 100.69     LegendNANA
14:00 Legend Double Dagger 1.8 -0.6 84 33 14 16.1 100.70     LegendNANA
15:00 Legend Double Dagger 1.6 -0.5 86 33 17 9.7 100.70     Snow
16:00 Legend Double Dagger 1.2 -0.1 91 32 16 16.1 100.72     LegendNANA
17:00 Legend Double Dagger 0.6 -0.7 91 33 17 16.1 100.73     LegendNANA
18:00 Legend Double Dagger 0.7 -0.5 92 31 23 16.1 100.74     Mostly Cloudy
19:00 Legend Double Dagger 0.5 -0.8 91 31 19 16.1 100.72     LegendNANA
20:00 Legend Double Dagger -0.1 -1.0 94 29 17 16.1 100.69   -5 Snow
21:00 Legend Double Dagger 0.0 -0.9 94 29 16 16.1 100.65   -5 Snow
22:00 Legend Double Dagger -0.5 -1.9 90 33 24 24.1 100.63   -6 Snow
23:00 Legend Double Dagger -0.5 -1.6 92 32 30 24.1 100.67   -7 Snow

Notes on Data Quality.

Legend

  • E = Estimated
  • M = Missing
  • NA = Not Available
  • ‡ = Partner data that is not subject to review by the National Climate Archives
Date modified: